[[{"header":{"parameterUnit":"m.s-1","parameterCategory":1,"la1":30.2991,"la2":30.254,"lo1":-89.0895,"lo2":-89.0444,"dx":0.0017,"dy":0.0017,"nx":28,"ny":28,"refTime":"2023-01-17T09:00:00:Z","depth":0,"parameterNumber":2,"parameterNumberName":"U-component_of_WINDS"},"data":[0,0,0,0,0,0,0,0,0,0,0,0,0,0,0,0,0,0,0,0,0,0,0,0,0,0,0,0,0,0,0,0,0,0,0,0,0,0,0,0,0,0,0,0,0,0,0,0,0,0,0,0,0,0,0,0,0,0,-0.651,-0.651,0,-0.6474,-0.6474,-0.6473,-0.6458,-0.6458,-0.6458,-0.6458,-0.642,-0.6419,-0.6418,0,0,0,0,0,0,0,0,0,0,0,0,0,-0.6566,-0.6565,-0.651,-0.651,-0.651,-0.6474,-0.6474,-0.6473,-0.6458,-0.6458,-0.6458,-0.6458,-0.6421,-0.642,-0.6418,0,0,0,0,0,0,0,0,0,0,0,0,0,-0.6537,-0.6565,-0.651,-0.6498,-0.6496,-0.6474,-0.6474,-0.6473,-0.6458,-0.6458,-0.6458,-0.6458,-0.6421,-0.642,-0.6418,-0.6406,0,0,-0.6413,-0.6413,0,0,0,0,0,0,0,0,-0.6539,-0.6535,-0.65,-0.6498,-0.6497,-0.6471,-0.6479,-0.6451,-0.6458,-0.6472,-0.6458,-0.6458,-0.6437,-0.6434,-0.6427,-0.6404,-0.6403,-0.6413,-0.6412,-0.6411,-0.6411,0,0,0,0,0,0,0,-0.6541,-0.6536,-0.6496,-0.65,-0.6498,-0.6494,-0.649,-0.6474,-0.6455,-0.6471,-0.647,-0.6466,-0.6436,-0.6429,-0.6426,-0.6402,-0.6413,-0.6412,-0.6411,-0.641,-0.6368,-0.6368,0,0,0,0,0,0,-0.6545,-0.6538,-0.6497,-0.6495,-0.6518,-0.6492,-0.6488,-0.6479,-0.6455,-0.6451,-0.6466,-0.6465,-0.6431,-0.6428,-0.6425,-0.6409,-0.6411,-0.641,-0.6409,-0.6368,-0.6368,-0.6368,0,0,0,0,0,0,-0.6546,-0.6541,-0.6499,-0.6516,-0.651,-0.6491,-0.6481,-0.6478,-0.6471,-0.6451,-0.6447,-0.6462,-0.6431,-0.6427,-0.6411,-0.6408,-0.6409,-0.6408,-0.6368,-0.6368,-0.6368,-0.6378,0,0,0,0,0,0,-0.6548,-0.6542,-0.6537,-0.6516,-0.651,-0.6486,-0.6481,-0.6477,-0.6468,-0.6467,-0.6446,-0.6443,-0.6431,-0.6413,-0.6409,-0.6405,-0.6407,-0.6368,-0.6368,-0.6368,-0.6378,-0.6378,-0.6378,0,0,0,0,0,-0.655,-0.6541,-0.6537,-0.6532,-0.6503,-0.6485,-0.6482,-0.6469,-0.6468,-0.6463,-0.645,-0.6443,-0.6409,-0.6412,-0.6407,-0.6403,-0.6369,-0.6368,-0.6368,-0.6377,-0.6378,-0.6378,0,0,0,0,0,0,-0.6562,-0.6538,-0.6533,-0.6518,-0.6504,-0.6483,-0.6476,-0.647,-0.6455,-0.6455,-0.6439,-0.6435,-0.642,-0.641,-0.6414,-0.639,-0.6388,-0.6387,-0.6397,-0.6397,-0.6397,-0.64,-0.6405,0,0,0,0,0,-0.6564,-0.6551,-0.6531,-0.6519,-0.6512,-0.6496,-0.6487,-0.6479,-0.6463,-0.6457,-0.6443,-0.6428,-0.6414,-0.6405,-0.6391,-0.6376,-0.6371,-0.6371,-0.6371,-0.6371,-0.637,-0.6361,-0.6361,-0.6366,-0.6366,-0.6366,0,0,-0.6565,-0.6551,-0.6544,-0.6521,-0.6509,-0.6496,-0.6491,-0.6477,-0.6468,-0.6455,-0.6439,-0.6428,-0.6411,-0.6395,-0.6388,-0.6386,-0.6368,-0.6371,-0.6371,-0.637,-0.6361,-0.6361,-0.636,-0.6366,-0.6366,-0.6366,0,0,-0.6562,-0.655,-0.6539,-0.6527,-0.6509,-0.6498,-0.6496,-0.6476,-0.6468,-0.6452,-0.6442,-0.643,-0.6406,-0.6394,-0.6385,-0.6377,-0.637,-0.6373,-0.6374,-0.6366,-0.6365,-0.6365,-0.6362,-0.6361,-0.6372,-0.6372,-0.6372,0,-0.6567,-0.6548,-0.6534,-0.6521,-0.6512,-0.65,-0.6488,-0.6478,-0.6456,-0.6449,-0.6448,-0.6418,-0.6405,-0.6386,-0.6385,-0.6378,-0.6374,-0.6375,-0.6366,-0.6366,-0.6365,-0.6362,-0.6361,-0.6372,-0.6372,-0.6372,-0.6372,0,-0.6554,-0.6541,-0.6534,-0.6513,-0.6503,-0.6491,-0.6475,-0.6466,-0.6459,-0.6448,-0.6431,-0.6416,-0.6398,-0.6393,-0.6386,-0.6374,-0.6373,-0.637,-0.6367,-0.6365,-0.6362,-0.6361,-0.6373,-0.6373,-0.6373,-0.6373,0,0,-0.6558,-0.653,-0.6528,-0.6518,-0.6497,-0.6487,-0.6474,-0.6457,-0.645,-0.6435,-0.6424,-0.6404,-0.64,-0.639,-0.6381,-0.6373,-0.6368,-0.637,-0.637,-0.637,-0.6354,-0.6357,-0.6356,-0.6364,-0.6363,-0.6363,-0.6355,0,-0.6552,-0.6529,-0.6516,-0.6498,-0.6486,-0.6474,-0.6463,-0.6449,-0.6439,-0.6427,-0.6415,-0.6401,-0.6397,-0.6391,-0.6383,-0.6371,-0.6365,-0.6371,-0.6353,-0.6353,-0.6357,-0.6354,-0.6357,-0.635,-0.6354,-0.6354,-0.6354,0,-0.6542,-0.6527,-0.6508,-0.6489,-0.6483,-0.6473,-0.6457,-0.6445,-0.6429,-0.6422,-0.641,-0.6401,-0.6387,-0.6387,-0.6367,-0.6372,-0.6364,-0.6356,-0.6356,-0.6353,-0.6353,-0.6351,-0.6348,-0.6347,-0.6352,-0.6352,-0.6352,0,-0.6546,-0.6522,-0.6507,-0.6499,-0.6476,-0.647,-0.646,-0.6444,-0.6435,-0.642,-0.6414,-0.6398,-0.6389,-0.6377,-0.6364,-0.6365,-0.6346,-0.6344,-0.6339,-0.634,-0.6336,-0.6336,-0.633,-0.6331,-0.6331,-0.6331,-0.6331,0,-0.654,-0.6529,-0.6509,-0.65,-0.6487,-0.6473,-0.646,-0.6449,-0.6435,-0.6424,-0.6413,-0.6403,-0.6386,-0.6374,-0.6363,-0.6349,-0.6345,-0.6339,-0.6336,-0.634,-0.634,-0.6334,-0.6334,-0.6331,-0.6331,-0.6331,-0.6331,0,-0.6543,-0.6529,-0.6512,-0.6492,-0.6487,-0.6478,-0.646,-0.6451,-0.644,-0.6426,-0.6422,-0.6404,-0.6389,-0.6375,-0.6355,-0.6348,-0.6333,-0.633,-0.6338,-0.6337,-0.6333,-0.6334,-0.6323,-0.6321,-0.6323,-0.6323,-0.6323,0,-0.654,-0.6531,-0.651,-0.6501,-0.6492,-0.6478,-0.6469,-0.6454,-0.6445,-0.6426,-0.6419,-0.6403,-0.6389,-0.6365,-0.6351,-0.6335,-0.6331,-0.6329,-0.6329,-0.6333,-0.6331,-0.6332,-0.6331,-0.6329,-0.6329,-0.6329,-0.6329,0,-0.6537,-0.653,-0.6517,-0.65,-0.6489,-0.6476,-0.6462,-0.6456,-0.6439,-0.6429,-0.6413,-0.6402,-0.6382,-0.6366,-0.6349,-0.6338,-0.6331,-0.6329,-0.6327,-0.633,-0.6336,-0.6333,-0.6339,-0.6329,-0.6329,-0.6329,-0.6329,-0.6329,-0.6536,-0.6528,-0.6511,-0.6496,-0.6484,-0.6472,-0.6462,-0.645,-0.6437,-0.6418,-0.6411,-0.6395,-0.6379,-0.6355,-0.6345,-0.6332,-0.6331,-0.6328,-0.6327,-0.6327,-0.6327,-0.6338,-0.6329,-0.6329,-0.6329,-0.6329,-0.6329,0,-0.6532,-0.6521,-0.6507,-0.6488,-0.6477,-0.6471,-0.6455,-0.6446,-0.6432,-0.6418,-0.6404,-0.6386,-0.6371,-0.6355,-0.6339,-0.6332,-0.6328,-0.6328,-0.6328,-0.6326,-0.633,-0.6333,-0.6332,-0.6332,-0.6332,-0.6332,-0.6332,-0.6332,-0.6528,-0.6513,-0.6505,-0.6484,-0.6473,-0.6457,-0.6448,-0.6437,-0.6425,-0.6406,-0.6393,-0.6383,-0.6368,-0.6351,-0.6336,-0.6332,-0.6327,-0.6328,-0.6322,-0.6326,-0.6326,-0.6326,-0.6329,-0.6327,-0.6327,-0.632,-0.632,-0.632]},{"header":{"parameterUnit":"m.s-1","parameterCategory":1,"la1":30.2991,"la2":30.254,"lo1":-89.0895,"lo2":-89.0444,"dx":0.0017,"dy":0.0017,"nx":28,"ny":28,"refTime":"2023-01-17T09:00:00:Z","depth":0,"parameterNumber":3,"parameterNumberName":"V-component_of_WINDS"},"data":[0,0,0,0,0,0,0,0,0,0,0,0,0,0,0,0,0,0,0,0,0,0,0,0,0,0,0,0,0,0,0,0,0,0,0,0,0,0,0,0,0,0,0,0,0,0,0,0,0,0,0,0,0,0,0,0,0,0,2.1914,2.1915,0,2.1986,2.1987,2.1987,2.1998,2.1997,2.1996,2.1996,2.2067,2.207,2.2072,0,0,0,0,0,0,0,0,0,0,0,0,0,2.1785,2.1788,2.1914,2.1915,2.1916,2.1986,2.1987,2.1988,2.1998,2.1997,2.1996,2.1996,2.2066,2.2069,2.2072,0,0,0,0,0,0,0,0,0,0,0,0,0,2.1847,2.1788,2.1914,2.193,2.1932,2.1986,2.1987,2.1988,2.1998,2.1997,2.1996,2.1995,2.2065,2.2069,2.2073,2.2116,0,0,2.2084,2.2086,0,0,0,0,0,0,0,0,2.1844,2.1852,2.1927,2.1929,2.1931,2.1982,2.1967,2.2031,2.1998,2.1973,2.1996,2.1995,2.204,2.2045,2.2061,2.2119,2.2122,2.2085,2.2087,2.2089,2.209,0,0,0,0,0,0,0,2.184,2.1849,2.1943,2.1928,2.193,2.1932,2.194,2.1979,2.2011,2.1975,2.1976,2.1984,2.2041,2.2057,2.2063,2.2123,2.2084,2.2088,2.209,2.2092,2.222,2.2222,0,0,0,0,0,0,2.1833,2.1845,2.194,2.1945,2.1884,2.1936,2.1944,2.1967,2.201,2.2016,2.1985,2.1984,2.2051,2.2058,2.2065,2.2119,2.2088,2.2092,2.2094,2.2219,2.2221,2.2222,0,0,0,0,0,0,2.183,2.1841,2.1937,2.1895,2.1908,2.1939,2.1964,2.1969,2.1985,2.2018,2.2023,2.1996,2.2051,2.206,2.2103,2.2122,2.2094,2.2097,2.2218,2.222,2.2221,2.2227,0,0,0,0,0,0,2.1826,2.184,2.1857,2.1896,2.191,2.1975,2.1965,2.1971,2.1992,2.1992,2.203,2.2036,2.2051,2.2098,2.2107,2.2126,2.21,2.2216,2.2219,2.2221,2.2225,2.2229,2.2232,0,0,0,0,0,2.1821,2.1855,2.1858,2.1869,2.1932,2.1976,2.1984,2.2002,2.1993,2.2011,2.2032,2.2034,2.2118,2.2102,2.2113,2.2134,2.2215,2.2218,2.2221,2.2224,2.2228,2.2232,0,0,0,0,0,0,2.1817,2.1861,2.1864,2.1911,2.194,2.1978,2.2,2.2005,2.2036,2.2035,2.2054,2.2063,2.2106,2.2124,2.2105,2.2177,2.2166,2.2171,2.2165,2.2169,2.2172,2.2168,2.2103,0,0,0,0,0,2.1822,2.1855,2.189,2.1929,2.1943,2.1969,2.1989,2.2,2.203,2.2042,2.2066,2.2095,2.2128,2.2149,2.2181,2.2227,2.2236,2.2247,2.225,2.2252,2.2257,2.2283,2.2289,2.2231,2.223,2.223,0,0,2.1832,2.186,2.1879,2.1929,2.1952,2.1985,2.1979,2.2014,2.2039,2.2047,2.209,2.2109,2.2142,2.2187,2.2209,2.2204,2.2275,2.2256,2.2257,2.2261,2.2287,2.2292,2.2297,2.2232,2.2232,2.2232,0,0,2.1868,2.1892,2.1927,2.195,2.1986,2.2003,2.2012,2.2049,2.2062,2.2105,2.2112,2.2141,2.2197,2.2221,2.224,2.2284,2.2288,2.2293,2.2311,2.2336,2.2341,2.2345,2.2362,2.2368,2.2297,2.2297,2.2297,0,2.1876,2.1927,2.1944,2.198,2.2001,2.201,2.2046,2.2068,2.2112,2.2126,2.212,2.2191,2.2213,2.2265,2.2276,2.2291,2.2301,2.229,2.2339,2.2343,2.2348,2.2364,2.237,2.2298,2.2298,2.2298,2.2298,0,2.1935,2.197,2.1994,2.2038,2.2062,2.2097,2.2119,2.2141,2.215,2.2167,2.2211,2.2239,2.2277,2.229,2.2298,2.2342,2.2338,2.2335,2.2324,2.2353,2.2369,2.2376,2.2299,2.2299,2.2298,2.2298,0,0,2.1972,2.2024,2.2033,2.2053,2.2093,2.212,2.2155,2.2193,2.2212,2.2242,2.2272,2.2319,2.2316,2.2338,2.2349,2.2371,2.2406,2.2365,2.2366,2.2373,2.2458,2.2461,2.2468,2.2408,2.2409,2.241,2.2455,0,2.2014,2.2079,2.2095,2.215,2.2183,2.2191,2.2221,2.2249,2.2266,2.2296,2.2314,2.2347,2.2341,2.2354,2.2376,2.2397,2.2423,2.2393,2.2437,2.2438,2.243,2.2476,2.248,2.2522,2.2462,2.2463,2.2463,0,2.2072,2.2104,2.2162,2.2198,2.2212,2.224,2.2276,2.2304,2.2335,2.2346,2.237,2.2378,2.2415,2.24,2.2451,2.2431,2.2449,2.2462,2.2464,2.247,2.2454,2.2485,2.2536,2.2543,2.2473,2.2472,2.2471,0,2.2095,2.2152,2.2195,2.2211,2.2254,2.2273,2.2291,2.2321,2.2343,2.2374,2.2388,2.2422,2.2442,2.2468,2.2485,2.2473,2.2535,2.2522,2.2545,2.2545,2.256,2.2559,2.2615,2.2568,2.2568,2.2568,2.2568,0,2.2141,2.2177,2.2206,2.2232,2.2272,2.229,2.2329,2.2347,2.2374,2.2404,2.2411,2.2439,2.2459,2.249,2.2503,2.2544,2.2552,2.2561,2.2565,2.2562,2.2561,2.2576,2.2574,2.257,2.2569,2.2569,2.2569,0,2.2175,2.2196,2.2243,2.2279,2.2289,2.2317,2.2348,2.2373,2.239,2.2427,2.2437,2.2463,2.2499,2.2518,2.2563,2.2572,2.2618,2.2619,2.2608,2.261,2.2633,2.2631,2.2703,2.2713,2.2657,2.2658,2.2658,0,2.2204,2.2232,2.2271,2.2292,2.2311,2.2344,2.2367,2.2384,2.2407,2.2444,2.2466,2.2502,2.2532,2.2589,2.2612,2.2646,2.2649,2.2671,2.2654,2.265,2.2651,2.265,2.2654,2.2675,2.2676,2.2676,2.2676,0,2.2254,2.2263,2.2295,2.2331,2.2358,2.2387,2.2415,2.2431,2.2454,2.2479,2.2516,2.254,2.2585,2.2622,2.2658,2.2676,2.268,2.2681,2.2689,2.2687,2.2681,2.2686,2.2618,2.268,2.268,2.2679,2.2679,2.2679,2.2288,2.2314,2.2345,2.2381,2.2404,2.2431,2.2457,2.2477,2.2508,2.2548,2.2555,2.2595,2.2625,2.2673,2.2692,2.2723,2.2719,2.2729,2.2732,2.2735,2.2737,2.2674,2.273,2.2729,2.2729,2.2729,2.2729,0,2.234,2.2361,2.2394,2.2434,2.2461,2.2462,2.2494,2.2517,2.2552,2.258,2.2609,2.2652,2.2687,2.2712,2.2748,2.2768,2.2771,2.2777,2.2776,2.2781,2.2738,2.2729,2.2774,2.2774,2.2774,2.2774,2.2774,2.2774,2.2371,2.2415,2.2427,2.2482,2.2502,2.2541,2.2559,2.2584,2.2606,2.2653,2.2683,2.2699,2.2725,2.2763,2.2795,2.2801,2.2815,2.2821,2.2827,2.2788,2.2783,2.2779,2.2771,2.2823,2.2823,2.2867,2.2868,2.2868]}]]